Погода в Утёвке

Россия / Самарская область     52°54′20″N   50°57′03″E
темп.,
°C
ветер,
м/с
пор.,
м/с
влажн.,
%
обл.,
%
осадки,
мм/ч
давл.,
гПа
погр.,
м
3 марта, ср
ср301:00−1зюз3897100 0.7 1002303
04:00−3зсз3396100 0.8 100250
07:00−4з2394100 0.0 100132
10:00−3зсз3595100 0.0 1003196
13:00−1сз469492 0.1 1003585
16:00−2сз589096 0.3 1004762
19:00−5зсз41089100 0.1 1006416
22:00−8зсз5119296 0.1 1008341
4 марта, чт
чт401:00−10з489584 0.0 1008148
04:00−12зюз489562 0.0 1009137
07:00−12юз499468 0.0 1008164
10:00−8юз6129261 0.0 1008387
13:00−5юз81391100 0.1 1005659
16:00−2юз91694100 0.3 1003979
19:00+1зюз91691100 0.6 10021037
22:000зюз91597100 1.0 1003915
5 марта, пт
пт501:000зюз81497100 0.6 1003848
04:000юз71388100 0.7 1002660
07:00−1юз71397100 0.6 1002624
10:000юз71397100 2.6 1001722
13:00+1юз614100100 1.7 1000677
16:00+1зюз714100100 2.6 1002652
19:00−3ссз51093100 0.4 1006433
22:00−10ссз369378 0.4 1011112
6 марта, сб
сб601:00−14с238840 0.0 101320
04:00−15св128770 0.0 101520
07:00−14в2387100 0.0 101545
10:00−11в3685100 0.0 1013247
13:00−8в3487100 0.0 1011334
16:00−7ссв2390100 0.1 1010313
19:00−11с2392100 0.1 101027
22:00−14з229050 0.1 101120
7 марта, вс
вс701:00−13з369665 0.1 1011107
04:00−15з369650 0.1 101291
07:00−17зсз36950 0.0 101392
10:00−15зсз35910 0.0 1015243
13:00−12зюз35880 0.0 1016349
16:00−11юз47890 0.0 1015358
19:00−14ююз5119236 0.0 1013240
22:00−11ююз6149068 0.0 1011436